Location: Unspecified
(0.0000°N, 0.0000°E)
Time: 17:29:48
(UTC+00:00)

Hubble Space Telescope - Pass Details

Date: 15 January 2021
Orbit: 536 x 539 km, 28.5° (Epoch: 24 January)

Event Time Altitude Azimuth Distance (km) Brightness Sun altitude
Exits shadow 05:17:07 15° 262° (W) 1,509 2.5 -12.2°
Maximum altitude 05:19:49 28° 209° (SSW) 1,024 2.1 -11.6°
Drops below altitude 10° 05:23:22 10° 150° (SSE) 1,778 4.2 -10.7°
Sets 05:25:52 0° 138° (SE) 2,669 5.6 -10.2°
